Location: Cudham
(51.3000°N, 0.0667°E)
Time: 22:46:56
(UTC+00:00)

RESURS DK-1 - Pass Details

Date: 15 May 2026
Orbit: 522 x 531 km, 69.9° (Epoch: 6 June)

Event Time Altitude Azimuth Distance (km) Brightness Sun altitude
Rises 23:50:13 0° 318° (NW) 2,683 6.6 -19.6°
Reaches altitude 10° 23:52:46 10° 302° (WNW) 1,788 5.3 -19.6°
Maximum altitude 23:55:48 21° 252° (WSW) 1,217 3.9 -19.6°
Enters shadow 23:55:50 21° 252° (WSW) 1,217 3.9 -19.6°
